TimeMDT,TemperatureF,Dew PointF,Humidity,Sea Level PressureIn,VisibilityMPH,Wind Direction,Wind SpeedMPH,Gust SpeedMPH,PrecipitationIn,Events,Conditions,WindDirDegrees,DateUTC
12:15 AM,50.0,39.2,66,29.63,10.0,South,8.1,-,N/A,,Clear,190,2013-10-08 06:15:00
12:35 AM,48.2,37.4,66,29.63,10.0,South,3.5,-,N/A,,Clear,190,2013-10-08 06:35:00
12:55 AM,48.2,37.4,66,29.62,10.0,South,4.6,-,N/A,,Clear,190,2013-10-08 06:55:00
1:15 AM,48.2,39.2,71,29.63,10.0,South,6.9,-,N/A,,Clear,190,2013-10-08 07:15:00
1:35 AM,48.2,39.2,71,29.63,10.0,Calm,Calm,-,N/A,,Clear,0,2013-10-08 07:35:00
1:55 AM,44.6,37.4,76,29.64,10.0,West,5.8,-,N/A,,Clear,270,2013-10-08 07:55:00
2:15 AM,46.4,39.2,76,29.64,10.0,SW,6.9,-,N/A,,Clear,230,2013-10-08 08:15:00
2:35 AM,46.4,39.2,76,29.63,10.0,SW,4.6,-,N/A,,Clear,230,2013-10-08 08:35:00
2:55 AM,42.8,37.4,81,29.63,10.0,West,6.9,-,N/A,,Clear,280,2013-10-08 08:55:00
3:15 AM,46.4,35.6,66,29.64,10.0,NW,4.6,-,N/A,,Clear,320,2013-10-08 09:15:00
3:35 AM,51.8,35.6,54,29.63,10.0,NNW,12.7,-,N/A,,Clear,330,2013-10-08 09:35:00
3:55 AM,51.8,33.8,50,29.65,10.0,NNW,13.8,19.6,N/A,,Clear,330,2013-10-08 09:55:00
4:15 AM,53.6,30.2,41,29.66,10.0,NNW,11.5,-,N/A,,Clear,330,2013-10-08 10:15:00
4:35 AM,53.6,30.2,41,29.67,10.0,NNW,13.8,-,N/A,,Clear,340,2013-10-08 10:35:00
4:55 AM,53.6,30.2,41,29.67,10.0,NNW,16.1,19.6,N/A,,Clear,330,2013-10-08 10:55:00
5:15 AM,53.6,28.4,38,29.68,10.0,NNW,12.7,-,N/A,,Clear,330,2013-10-08 11:15:00
5:35 AM,53.6,28.4,38,29.69,10.0,NNW,12.7,-,N/A,,Clear,330,2013-10-08 11:35:00
5:55 AM,51.8,28.4,41,29.69,10.0,NW,13.8,-,N/A,,Clear,320,2013-10-08 11:55:00
6:15 AM,51.8,28.4,41,29.70,10.0,NNW,12.7,-,N/A,,Clear,330,2013-10-08 12:15:00
6:35 AM,50.0,28.4,43,29.70,10.0,NNW,15.0,-,N/A,,Clear,330,2013-10-08 12:35:00
6:55 AM,50.0,28.4,43,29.70,10.0,NW,11.5,-,N/A,,Clear,320,2013-10-08 12:55:00
7:15 AM,48.2,28.4,46,29.70,10.0,NW,13.8,-,N/A,,Clear,320,2013-10-08 13:15:00
7:35 AM,50.0,28.4,43,29.71,10.0,NNW,12.7,-,N/A,,Clear,330,2013-10-08 13:35:00
7:55 AM,51.8,28.4,41,29.72,10.0,NNW,4.6,-,N/A,,Clear,330,2013-10-08 13:55:00
8:15 AM,50.0,30.2,47,29.73,10.0,South,3.5,-,N/A,,Clear,170,2013-10-08 14:15:00
8:35 AM,51.8,30.2,44,29.73,10.0,Calm,Calm,-,N/A,,Clear,0,2013-10-08 14:35:00
8:55 AM,53.6,30.2,41,29.74,10.0,North,5.8,-,N/A,,Clear,10,2013-10-08 14:55:00
9:15 AM,55.4,30.2,38,29.75,10.0,North,5.8,-,N/A,,Clear,350,2013-10-08 15:15:00
9:55 AM,59.0,30.2,34,29.77,10.0,WSW,3.5,-,N/A,,Clear,250,2013-10-08 15:55:00
10:15 AM,60.8,30.2,31,29.76,10.0,NNW,15.0,19.6,N/A,,Clear,330,2013-10-08 16:15:00
10:55 AM,60.8,28.4,29,29.76,10.0,NW,18.4,23.0,N/A,,Clear,320,2013-10-08 16:55:00
11:15 AM,62.6,28.4,27,29.76,10.0,NNW,16.1,20.7,N/A,,Clear,330,2013-10-08 17:15:00
11:35 AM,62.6,30.2,30,29.76,10.0,NW,13.8,19.6,N/A,,Clear,310,2013-10-08 17:35:00
11:55 AM,60.8,28.4,29,29.76,10.0,NW,13.8,17.3,N/A,,Clear,310,2013-10-08 17:55:00
12:15 PM,60.8,30.2,31,29.75,10.0,NW,13.8,-,N/A,,Clear,310,2013-10-08 18:15:00
12:35 PM,62.6,30.2,30,29.75,10.0,NW,12.7,18.4,N/A,,Clear,310,2013-10-08 18:35:00
12:55 PM,62.6,30.2,30,29.74,10.0,WNW,8.1,-,N/A,,Clear,290,2013-10-08 18:55:00
1:15 PM,64.4,30.2,28,29.74,10.0,NNW,6.9,-,N/A,,Clear,330,2013-10-08 19:15:00
1:35 PM,64.4,30.2,28,29.73,10.0,West,5.8,-,N/A,,Clear,280,2013-10-08 19:35:00
1:55 PM,64.4,28.4,26,29.73,10.0,WNW,10.4,-,N/A,,Clear,300,2013-10-08 19:55:00
2:15 PM,64.4,28.4,26,29.73,10.0,West,8.1,-,N/A,,Clear,280,2013-10-08 20:15:00
2:35 PM,64.4,28.4,26,29.73,10.0,NW,9.2,-,N/A,,Clear,310,2013-10-08 20:35:00
2:55 PM,64.4,28.4,26,29.73,10.0,WNW,10.4,-,N/A,,Clear,290,2013-10-08 20:55:00
3:15 PM,64.4,28.4,26,29.73,10.0,WNW,6.9,-,N/A,,Clear,290,2013-10-08 21:15:00
3:35 PM,64.4,26.6,24,29.74,10.0,WNW,9.2,-,N/A,,Clear,300,2013-10-08 21:35:00
3:55 PM,64.4,26.6,24,29.74,10.0,NW,9.2,-,N/A,,Clear,310,2013-10-08 21:55:00
4:15 PM,64.4,26.6,24,29.75,10.0,NNW,10.4,-,N/A,,Clear,330,2013-10-08 22:15:00
4:35 PM,62.6,26.6,26,29.75,10.0,NNW,9.2,-,N/A,,Clear,330,2013-10-08 22:35:00
4:55 PM,62.6,28.4,27,29.76,10.0,NW,9.2,-,N/A,,Clear,320,2013-10-08 22:55:00
5:15 PM,62.6,26.6,26,29.76,10.0,NNW,8.1,-,N/A,,Clear,330,2013-10-08 23:15:00
5:35 PM,60.8,28.4,29,29.77,10.0,NNW,5.8,-,N/A,,Clear,340,2013-10-08 23:35:00
5:55 PM,59.0,28.4,31,29.78,10.0,NNW,8.1,-,N/A,,Clear,330,2013-10-08 23:55:00
6:15 PM,57.2,28.4,33,29.79,10.0,NW,8.1,-,N/A,,Clear,320,2013-10-09 00:15:00
6:35 PM,55.4,26.6,33,29.80,10.0,NW,6.9,-,N/A,,Clear,320,2013-10-09 00:35:00
6:55 PM,53.6,26.6,35,29.82,10.0,NNW,8.1,-,N/A,,Clear,330,2013-10-09 00:55:00
7:15 PM,55.4,28.4,36,29.83,10.0,NW,8.1,-,N/A,,Clear,320,2013-10-09 01:15:00
7:35 PM,55.4,28.4,36,29.83,10.0,NNW,8.1,-,N/A,,Clear,330,2013-10-09 01:35:00
7:55 PM,55.4,28.4,36,29.84,9.0,NW,5.8,-,N/A,,Clear,320,2013-10-09 01:55:00
8:16 PM,53.6,28.4,38,29.86,10.0,NNW,8.1,-,N/A,,Partly Cloudy,330,2013-10-09 02:16:00
8:35 PM,53.6,28.4,38,29.87,10.0,NW,9.2,-,N/A,,Partly Cloudy,320,2013-10-09 02:35:00
8:55 PM,53.6,28.4,38,29.88,10.0,NW,9.2,-,N/A,,Clear,320,2013-10-09 02:55:00
9:15 PM,51.8,28.4,41,29.89,10.0,NW,9.2,-,N/A,,Clear,320,2013-10-09 03:15:00
9:35 PM,51.8,28.4,41,29.89,10.0,NW,8.1,-,N/A,,Clear,320,2013-10-09 03:35:00
9:55 PM,51.8,28.4,41,29.89,10.0,NW,8.1,-,N/A,,Clear,320,2013-10-09 03:55:00
10:15 PM,50.0,28.4,43,29.89,10.0,NNW,5.8,-,N/A,,Clear,340,2013-10-09 04:15:00
10:35 PM,48.2,28.4,46,29.90,10.0,NW,4.6,-,N/A,,Scattered Clouds,310,2013-10-09 04:35:00
10:55 PM,48.2,28.4,46,29.91,10.0,North,3.5,-,N/A,,Overcast,360,2013-10-09 04:55:00
11:15 PM,48.2,30.2,50,29.91,10.0,NNW,5.8,-,N/A,,Scattered Clouds,330,2013-10-09 05:15:00
11:35 PM,46.4,28.4,50,29.91,10.0,NNW,9.2,-,N/A,,Clear,330,2013-10-09 05:35:00
11:55 PM,46.4,28.4,50,29.92,10.0,NW,8.1,-,N/A,,Clear,320,2013-10-09 05:55:00